Temperature
15 14 14 14 14 14 14 14 14 14 14 14 14 14 14 14 14 14 14 14 14 14 14 13 13 13 14 14 14 14 14 14 14 14 14 14 14 14
15 15 15 14 14 14 14 14 14 14 14 14 14 14 14 14 14 14 14 14 13 13 13 13 13 13 13 13 13 14 14 14 14 14 14 14 14 14
15 15 15 14 14 14 14 14 14 13 13 14 14 14 14 14 14 13 13 13 13 13 13 13 13 13 13 13 13 13 13 14 14 14 14 14 14 14
15 15 15 14 14 14 14 14 14 13 13 13 14 14 14 13 13 13 13 13 13 13 13 13 13 13 13 13 13 13 13 13 13 14 14 14 14 14
15 15 15 14 14 14 14 14 14 13 13 13 13 13 13 13 13 13 13 13 13 13 13 13 13 13 13 13 13 13 13 13 13 13 13 13 13 14
15 15 15 14 14 14 14 14 14 13 13 13 13 13 13 13 13 13 13 13 13 13 13 13 13 13 13 13 13 13 13 13 13 13 13 13 13 13
15 15 15 15 14 14 14 14 14 13 13 13 13 13 13 13 13 13 13 13 13 13 13 13 13 13 13 13 13 13 13 13 13 13 13 13 13 13
15 15 15 14 14 14 14 14 13 13 13 13 13 13 13 13 13 13 12 12 12 13 12 13 13 13 13 13 13 13 13 13 13 13 13 13 13 13
15 15 15 14 14 14 14 13 13 13 13 13 13 13 13 13 12 12 12 12 12 12 12 12 12 12 13 13 13 12 12 12 12 12 12 12 12 12
14 14 14 14 14 14 13 13 13 13 13 13 13 13 13 12 12 12 12 12 12 12 12 12 12 12 13 13 12 12 12 12 12 12 12 12 12 12
14 14 14 14 14 13 13 13 13 13 13 13 13 13 12 12 12 12 12 11 11 12 12 11 12 12 12 12 12 12 12 12 12 12 12 12 12 12
14 14 13 13 13 13 13 13 13 13 13 12 12 12 12 12 12 12 12 11 11 11 12 11 12 11 11 12 12 12 12 12 12 12 12 12 12 12
13 13 13 13 13 12 12 12 12 12 12 12 12 12 12 12 12 12 12 11 11 11 11 11 11 11 11 11 11 12 11 12 12 12 12 12 12 12
13 13 12 12 12 12 12 12 12 11 11 11 11 11 12 12 12 12 12 11 11 11 11 11 11 11 11 11 11 11 11 11 11 11 11 11 11 11
12 12 12 12 11 11 11 11 11 11 11 11 11 11 11 11 11 11 11 11 11 11 11 11 11 11 11 11 11 11 11 11 11 11 11 11 11 11
11 11 11 11 11 11 11 11 11 10 10 10 10 10 10 10 10 10 11 11 10 11 11 11 11 11 10 11 10 10 11 11 11 11 11 11 11 11
11 11 11 11 11 10 10 10 10 10 10 10 10 10 10 10 10 10 10 10 10 10 10 11 11 10 10 10 10 10 10 11 11 11 11 10 11 11
10 10 10 10 10 9 9 9 9 9 9 9 9 9 9 9 9 9 9 9 9 10 10 10 10 10 10 10 10 10 10 10 11 11 10 10 10 11
10 10 9 9 9 9 9 9 9 9 9 9 8 8 8 8 9 9 9 9 9 9 9 9 9 9 9 9 10 10 10 10 10 10 10 10 10 11
10 9 9 9 9 8 8 8 8 8 8 8 8 8 8 8 8 8 8 8 8 8 9 9 9 9 9 9 9 10 10 10 10 10 10 10 10 10
9 9 9 8 8 8 8 8 8 7 7 7 7 7 7 7 7 7 7 8 8 8 8 8 9 9 9 8 8 9 10 10 10 9 9 9 9 10
8 8 8 8 8 8 7 7 7 7 7 7 7 7 7 7 7 7 7 7 7 7 7 8 8 8 8 8 8 9 9 10 10 9 9 9 9 9
8 7 7 7 7 7 7 7 7 7 7 6 6 6 6 6 6 6 6 7 7 7 7 7 8 8 8 8 8 8 9 9 9 9 9 10 9 9
Wind_Speed
3 3 2 1 1 1 2 3 4 1 2 3 3 3 3 5 7 7 8 10 11 13 13 14 15 15 15 14 14 14 14 14 15 16 18 19 20 22
3 3 2 2 1 1 2 2 3 4 3 3 3 4 4 5 7 8 10 11 12 14 15 16 17 17 18 18 17 16 16 15 16 16 16 16 16 19
3 4 4 3 2 2 1 1 2 3 3 4 3 3 3 4 6 9 11 11 13 15 16 17 18 19 20 20 19 19 18 17 17 17 17 17 17 17
6 5 5 4 4 3 3 3 3 3 4 5 4 3 4 5 5 5 8 10 11 14 15 16 17 18 19 20 21 21 20 20 19 19 19 19 19 19
7 7 7 6 6 5 5 4 4 4 4 4 5 3 4 4 4 4 4 5 8 11 12 13 14 15 16 18 19 21 21 21 21 21 21 21 21 20
7 8 8 8 8 7 6 6 5 5 4 4 5 5 5 4 2 4 4 4 4 7 9 10 10 12 13 15 17 18 20 22 22 23 23 23 23 23
7 7 8 10 11 9 7 7 7 6 5 5 6 4 5 4 4 4 4 5 5 4 4 5 6 6 11 14 16 18 19 21 22 23 24 24 24 24
8 7 8 9 11 13 13 12 10 8 8 6 6 7 8 7 5 5 4 4 5 4 3 5 3 6 7 12 16 19 20 21 22 23 23 24 25 25
8 7 6 7 8 7 9 11 12 14 14 9 9 10 9 8 6 6 6 7 7 5 3 6 5 7 8 14 19 21 22 22 22 22 22 23 24 24
6 6 7 7 6 6 7 7 8 9 11 10 10 12 11 10 9 9 8 7 7 6 5 6 6 7 9 11 19 21 22 22 21 21 21 22 23 24
6 6 7 7 9 9 6 7 9 9 12 14 16 16 17 17 12 5 6 6 8 7 5 5 6 7 7 8 13 19 19 20 20 20 21 21 22 20
5 5 8 8 9 7 6 7 9 10 8 9 10 13 13 14 16 11 10 9 8 7 6 6 6 5 5 6 7 9 11 15 18 19 20 20 19 11
5 5 5 7 8 8 8 8 12 11 8 8 9 9 9 9 9 10 10 11 11 10 7 6 6 5 6 5 5 5 6 6 8 10 15 18 18 12
5 4 5 8 9 11 9 11 15 12 7 7 8 9 9 10 10 10 10 12 14 14 11 9 7 7 7 7 6 5 6 6 6 7 7 12 14 17
5 7 8 10 10 9 12 14 11 7 6 7 9 10 10 10 9 8 9 9 10 15 16 12 10 9 8 9 8 7 6 6 7 8 8 7 7 6
5 6 9 9 8 9 9 8 6 6 7 8 9 9 8 7 8 8 8 8 7 9 10 13 12 12 10 11 10 10 8 6 6 7 8 8 7 7
2 2 3 4 4 5 5 6 6 6 6 7 8 9 8 8 8 7 7 6 7 8 9 7 8 9 12 10 9 11 10 10 10 9 7 9 9 9
2 3 4 5 5 6 6 7 6 6 7 7 7 8 8 8 8 7 6 7 9 9 9 8 6 4 4 7 13 12 11 11 9 8 7 8 11 9
3 4 5 6 6 6 6 7 7 7 7 7 7 8 8 8 8 8 7 7 8 9 9 7 6 6 8 11 8 13 11 10 8 7 8 9 11 10
4 5 6 6 6 6 6 7 7 7 7 7 8 8 8 8 8 8 8 8 9 9 9 7 7 8 10 11 9 7 13 11 8 9 8 8 9 10
5 6 6 6 6 6 6 7 7 7 8 7 8 8 8 8 8 8 8 10 10 9 9 9 9 12 8 5 6 8 7 12 13 9 7 6 6 6
6 6 6 6 6 6 6 6 7 7 7 7 7 8 8 7 8 9 8 8 8 9 10 9 8 6 5 7 11 11 10 7 10 15 16 12 7 7
6 6 6 6 6 6 6 7 8 7 7 7 7 7 7 7 8 8 8 9 8 9 10 9 7 6 7 8 10 9 10 9 6 6 8 13 18 18
Wind_Direction
168 164 165 189 151 153 150 151 147 168 295 294 307 300 284 253 251 242 244 250 252 255 259 262 264 266 267 268 268 268 268 264 261 258 254 251 247 243
183 177 191 203 176 153 148 151 154 165 224 264 263 275 283 282 268 254 255 262 263 263 264 265 265 265 265 265 265 266 266 265 262 259 256 253 253 249
197 191 211 202 195 206 182 167 172 165 216 272 267 276 282 282 285 273 268 265 268 269 269 269 269 268 266 264 263 263 263 263 262 259 256 254 252 252
209 204 220 215 212 217 210 219 218 199 199 254 279 282 273 272 270 274 272 268 264 270 272 274 274 274 270 266 263 261 261 261 260 259 256 254 252 251
208 207 216 207 219 222 219 224 231 224 202 221 258 265 273 278 288 287 279 278 278 278 279 280 282 281 278 274 268 264 262 262 260 259 257 256 254 251
215 215 217 210 215 218 222 224 226 231 229 231 251 263 267 276 271 276 290 283 281 285 285 285 287 291 288 284 277 271 266 263 260 258 257 256 254 253
225 224 224 221 219 217 220 220 218 225 231 237 250 260 264 266 259 252 260 276 279 262 274 279 283 287 289 287 283 276 269 265 262 259 256 254 253 252
229 235 239 237 235 232 233 227 215 218 225 230 240 243 254 248 247 244 247 264 280 261 235 269 262 272 272 274 274 274 272 268 265 262 258 255 252 250
226 232 245 246 240 241 247 247 239 234 227 226 236 244 248 242 236 245 239 236 246 244 227 268 263 267 269 273 271 270 270 269 267 263 260 257 253 250
225 225 233 249 250 241 247 254 253 252 244 238 239 247 246 243 232 236 243 251 256 252 212 251 264 261 269 268 271 270 270 269 268 265 261 258 255 252
241 239 235 244 253 250 245 255 266 269 263 249 244 248 251 251 244 242 245 245 263 261 213 221 255 262 265 264 267 267 266 267 267 266 263 260 257 254
255 253 249 254 264 263 242 246 261 268 273 279 268 264 260 258 250 234 235 242 251 261 230 212 243 243 271 263 257 260 262 265 266 265 263 261 259 247
248 254 256 262 270 269 253 243 251 260 269 266 268 268 264 259 252 238 230 232 240 247 233 202 227 223 227 260 268 254 246 254 260 260 260 258 255 231
245 252 257 267 273 273 265 257 262 267 263 263 265 266 265 264 259 249 239 236 238 244 244 217 222 228 236 251 260 261 252 244 241 250 252 257 255 243
245 250 259 267 276 274 268 271 274 264 257 261 264 265 263 262 261 260 257 250 247 249 251 235 230 237 231 244 251 251 260 258 239 243 248 243 241 232
266 275 280 281 278 272 277 279 265 255 255 260 267 269 270 267 263 259 263 261 261 265 253 242 234 233 241 243 246 253 246 245 246 238 240 247 242 230
266 288 293 299 299 295 291 285 280 278 271 266 269 274 274 270 267 260 256 256 255 264 271 263 241 233 234 237 245 250 250 250 250 246 238 251 253 241
201 259 274 278 278 282 284 286 281 276 273 271 270 268 269 268 268 265 256 254 258 262 263 263 260 263 264 253 232 244 249 250 249 238 228 242 258 251
218 254 261 265 267 271 273 276 279 279 278 276 274 272 270 269 267 266 263 259 262 263 262 256 244 240 256 269 255 223 232 246 246 243 235 234 250 256
236 250 258 260 264 269 273 276 279 283 280 276 274 273 271 269 270 268 263 259 265 268 268 259 244 238 242 256 264 254 225 230 240 245 247 244 249 257
253 251 254 260 265 268 270 272 273 276 276 277 278 276 273 270 269 268 267 266 265 266 263 262 256 247 248 247 259 262 252 227 224 232 236 240 250 253
260 258 260 264 268 272 274 275 277 276 277 277 278 278 275 269 269 271 272 271 267 263 265 267 264 255 232 240 255 264 267 262 240 237 235 226 224 232
262 261 265 272 272 275 276 274 275 276 275 277 279 280 278 274 270 268 268 269 269 269 270 271 266 252 246 245 253 259 262 266 264 258 255 244 237 245
Height
1554 1555 1555 1556 1556 1556 1556 1557 1557 1556 1556 1556 1556 1555 1555 1554 1554 1553 1552 1551 1550 1549 1548 1547 1547 1546 1546 1546 1546 1546 1546 1547 1548 1548 1549 1550 1552 1553
1552 1553 1553 1554 1554 1555 1555 1555 1555 1555 1554 1553 1553 1553 1552 1552 1551 1550 1549 1548 1547 1545 1544 1544 1543 1543 1542 1542 1542 1542 1542 1542 1542 1543 1544 1545 1546 1547
1550 1551 1551 1552 1552 1552 1553 1553 1553 1552 1552 1551 1551 1550 1550 1549 1548 1547 1546 1545 1544 1542 1541 1540 1539 1539 1538 1538 1538 1537 1537 1537 1537 1538 1538 1539 1540 1541
1548 1548 1549 1549 1550 1550 1550 1550 1550 1550 1549 1548 1548 1547 1546 1545 1544 1543 1542 1541 1540 1539 1538 1536 1535 1535 1534 1534 1533 1533 1532 1532 1532 1532 1532 1533 1534 1535
1545 1546 1546 1547 1547 1547 1547 1547 1547 1547 1546 1545 1544 1543 1542 1542 1540 1539 1538 1537 1536 1535 1533 1532 1531 1530 1529 1529 1528 1528 1527 1527 1527 1526 1526 1527 1528 1528
1542 1542 1543 1543 1543 1543 1544 1543 1543 1543 1542 1541 1540 1539 1538 1537 1536 1534 1533 1532 1531 1530 1529 1528 1526 1525 1524 1524 1523 1522 1522 1521 1521 1521 1520 1521 1521 1521
1538 1538 1539 1539 1539 1540 1539 1539 1539 1538 1538 1536 1535 1534 1533 1532 1531 1530 1528 1526 1525 1524 1523 1522 1521 1519 1519 1518 1517 1516 1516 1515 1515 1514 1514 1514 1514 1515
1534 1534 1535 1535 1535 1535 1535 1535 1534 1534 1532 1532 1530 1529 1527 1527 1526 1524 1523 1521 1518 1519 1517 1515 1515 1512 1512 1511 1510 1509 1509 1508 1508 1508 1508 1507 1507 1507
1529 1530 1530 1530 1530 1530 1529 1529 1528 1528 1528 1527 1524 1523 1522 1521 1520 1518 1517 1515 1513 1512 1511 1507 1507 1505 1505 1503 1503 1502 1501 1501 1501 1500 1500 1500 1500 1500
1524 1524 1524 1524 1524 1524 1523 1522 1522 1521 1521 1520 1518 1517 1516 1515 1514 1512 1510 1508 1505 1505 1505 1501 1499 1498 1497 1496 1495 1494 1494 1493 1493 1493 1493 1493 1493 1493
1518 1518 1519 1518 1518 1518 1517 1515 1514 1514 1514 1512 1511 1509 1508 1508 1507 1504 1502 1500 1496 1496 1497 1494 1492 1491 1489 1488 1487 1487 1486 1486 1485 1485 1485 1485 1485 1485
1512 1512 1512 1512 1512 1511 1510 1508 1507 1506 1505 1504 1502 1501 1500 1499 1498 1496 1494 1492 1489 1487 1487 1487 1484 1484 1480 1479 1479 1479 1478 1478 1477 1477 1477 1477 1477 1476
1505 1505 1506 1505 1505 1504 1503 1501 1500 1498 1496 1495 1493 1492 1490 1489 1488 1487 1486 1484 1481 1479 1479 1479 1477 1476 1474 1471 1471 1471 1470 1469 1469 1469 1469 1469 1469 1468
1499 1499 1499 1498 1498 1497 1495 1494 1493 1491 1488 1486 1484 1482 1481 1479 1478 1477 1476 1475 1473 1471 1471 1471 1469 1468 1466 1464 1462 1461 1462 1461 1461 1460 1460 1460 1460 1459
1493 1493 1492 1492 1491 1489 1488 1486 1485 1483 1480 1478 1475 1474 1472 1471 1469 1468 1466 1465 1463 1462 1462 1462 1461 1459 1458 1456 1454 1453 1452 1452 1452 1451 1451 1451 1450 1450
1488 1487 1487 1486 1484 1483 1481 1479 1477 1475 1473 1470 1468 1466 1464 1462 1460 1459 1457 1455 1453 1452 1452 1452 1452 1451 1449 1447 1445 1443 1443 1442 1442 1442 1441 1441 1440 1440
1482 1481 1480 1479 1477 1475 1473 1472 1470 1468 1466 1463 1461 1458 1456 1454 1452 1450 1449 1447 1445 1443 1442 1442 1442 1441 1439 1438 1436 1434 1434 1433 1433 1433 1432 1430 1430 1430
1477 1475 1473 1472 1470 1468 1467 1465 1463 1461 1458 1456 1453 1450 1448 1445 1443 1442 1440 1438 1436 1434 1433 1432 1432 1430 1429 1427 1427 1426 1425 1424 1423 1423 1423 1421 1420 1420
1471 1469 1468 1466 1464 1462 1460 1458 1455 1453 1451 1449 1446 1443 1440 1438 1435 1433 1431 1429 1427 1425 1424 1423 1423 1422 1419 1416 1415 1417 1416 1415 1414 1414 1413 1412 1411 1411
1466 1464 1462 1460 1458 1456 1453 1451 1448 1446 1444 1441 1438 1435 1433 1430 1427 1424 1422 1420 1418 1416 1415 1414 1413 1413 1411 1409 1406 1406 1407 1406 1405 1404 1404 1403 1402 1402
1460 1458 1456 1454 1451 1449 1446 1444 1441 1438 1436 1433 1430 1427 1424 1422 1419 1416 1414 1412 1410 1408 1406 1404 1404 1404 1402 1401 1398 1396 1397 1398 1397 1396 1395 1394 1393 1392
1453 1451 1449 1447 1444 1442 1439 1436 1433 1431 1428 1425 1422 1419 1416 1414 1411 1408 1406 1403 1401 1399 1397 1396 1395 1395 1394 1392 1389 1388 1387 1387 1388 1387 1387 1386 1385 1382
1446 1444 1442 1439 1437 1434 1431 1429 1426 1423 1420 1417 1414 1411 1408 1405 1403 1400 1398 1395 1393 1391 1389 1387 1386 1385 1384 1383 1381 1380 1379 1378 1378 1377 1377 1377 1376 1375